EW5624 Weather Reports


Display with metric or nautical units.
time (UTC)temp
F
wind
direction
speed
MPH
gust
MPH
rain 1hr
in
rain 24hr
in
rain mn
in
humidity
%
barometer
mb
20260906174520 76 113 2.0 7.0 0.00 0.01 0.01 75 1017.3
20260906173024 75 169 4.0 8.0 0.00 0.01 0.01 74 1017.6
20260906171606 76 55 1.0 9.0 0.00 0.01 0.01 77 1017.5
20260906170107 75 126 1.0 10.0 0.00 0.01 0.01 77 1017.6
20260906164512 74 103 2.0 7.0 0.00 0.01 0.01 80 1017.6
20260906163041 74 138 2.0 7.0 0.00 0.01 0.01 81 1017.8
20260906161602 73 117 1.0 8.0 0.00 0.01 0.01 81 1017.8
20260906160015 72 74 3.0 8.0 0.00 0.01 0.01 83 1017.9
20260906154536 71 148 2.0 8.0 0.00 0.01 0.01 86 1018.0
20260906153036 69 137 2.0 8.0 0.00 0.01 0.01 90 1017.9
20260906151549 68 142 2.0 8.0 0.00 0.01 0.01 92 1017.9
20260906150109 68 132 1.0 7.0 0.00 0.01 0.01 94 1017.9
20260906144524 67 162 1.0 8.0 0.00 0.01 0.01 96 1017.8
20260906143003 67 92 1.0 4.0 0.00 0.01 0.01 96 1017.7
20260906141632 67 92 0.0 4.0 0.00 0.01 0.01 97 1017.7
20260906140010 66 92 2.0 4.0 0.00 0.01 0.01 97 1017.6
20260906134547 66 90 0.0 4.0 0.00 0.01 0.01 97 1017.7
20260906133154 66 90 0.0 4.0 0.00 0.01 0.01 97 1017.6
20260906131612 65 90 0.0 3.0 0.00 0.01 0.01 97 1017.5
20260906130103 65 90 0.0 0.0 0.00 0.01 0.01 97 1017.5
20260906124639 65 90 0.0 3.0 0.00 0.01 0.01 97 1017.3
20260906123043 65 90 0.0 4.0 0.00 0.01 0.01 97 1017.1
20260906121504 64 90 0.0 4.0 0.00 0.01 0.01 96 1017.1
20260906120112 64 90 0.0 2.0 0.00 0.01 0.01 97 1016.9
20260906114543 64 90 0.0 4.0 0.00 0.01 0.01 96 1016.9
20260906113048 63 90 0.0 3.0 0.00 0.01 0.01 96 1016.8
20260906111633 63 90 0.0 0.0 0.00 0.01 0.01 96 1016.7
20260906110136 63 90 0.0 0.0 0.00 0.01 0.01 96 1016.5
20260906104528 63 90 0.0 0.0 0.00 0.01 0.01 96 1016.6
20260906103114 63 90 0.0 0.0 0.00 0.01 0.01 96 1016.4
20260906101537 63 90 0.0 0.0 0.00 0.01 0.01 96 1016.1
20260906100052 62 90 1.0 3.0 0.00 0.01 0.01 96 1015.8
20260906094523 61 90 0.0 0.0 0.00 0.01 0.01 95 1015.6
20260906093127 61 90 0.0 0.0 0.01 0.01 0.01 95 1015.8
20260906091549 62 90 0.0 0.0 0.01 0.01 0.01 95 1015.6
20260906090006 62 90 0.0 0.0 0.01 0.01 0.01 95 1015.5
20260906084608 62 90 0.0 0.0 0.01 0.01 0.01 95 1015.5
20260906083103 62 90 0.0 0.0 0.00 0.00 0.00 95 1015.6
20260906081508 63 90 0.0 0.0 0.00 0.00 0.00 95 1015.7
20260906080012 63 90 0.0 0.0 0.00 0.00 0.00 95 1015.7
20260906074533 63 90 0.0 0.0 0.00 0.00 0.00 95 1015.7
20260906073116 64 90 0.0 0.0 0.00 0.00 0.00 95 1015.7
20260906071637 64 90 0.0 0.0 0.00 0.00 0.00 95 1015.8
20260906070010 64 90 0.0 0.0 0.00 0.00 0.00 95 1015.9
20260906064547 64 90 0.0 0.0 0.00 0.00 0.00 95 1016.1
20260906063105 64 90 0.0 0.0 0.00 0.00 0.00 95 1016.2
20260906061543 65 90 0.0 0.0 0.00 0.00 0.00 95 1016.2
20260906060027 65 90 0.0 0.0 0.00 0.00 0.00 95 1016.2
20260906054549 65 90 0.0 0.0 0.00 0.00 0.00 95 1016.1
20260906053100 65 90 0.0 0.0 0.00 0.00 0.00 95 1016.1
20260906051601 66 90 0.0 0.0 0.00 0.00 0.00 95 1016.1
20260906050045 66 90 0.0 0.0 0.00 0.00 0.00 95 1016.2
20260906044602 66 90 0.0 0.0 0.00 0.00 0.00 95 1016.0
20260906043010 66 90 0.0 0.0 0.00 0.00 0.00 95 1016.0
20260906041516 66 90 0.0 0.0 0.00 0.00 0.00 95 1016.0
20260906040019 66 90 0.0 0.0 0.00 0.00 0.00 95 1016.0
20260906034549 66 90 0.0 0.0 0.00 0.00 0.00 95 1016.1
20260906033010 66 90 0.0 0.0 0.00 0.00 0.00 95 1016.2
20260906031537 66 90 0.0 2.0 0.00 0.00 0.00 95 1016.3
20260906030037 66 90 0.0 0.0 0.00 0.00 0.00 95 1015.8
20260906024524 67 90 0.0 0.0 0.00 0.00 0.00 94 1015.5
20260906023019 67 90 0.0 0.0 0.00 0.00 0.00 94 1015.2
20260906021546 67 90 0.0 0.0 0.00 0.00 0.00 94 1014.9
20260906020046 68 90 0.0 0.0 0.00 0.00 0.00 94 1014.4
20260906014537 68 90 0.0 0.0 0.00 0.00 0.00 94 1014.1
20260906013113 68 90 0.0 0.0 0.00 0.00 0.00 93 1013.7
20260906011541 69 90 0.0 0.0 0.00 0.00 0.00 92 1013.7
20260906010011 70 90 0.0 0.0 0.00 0.00 0.00 90 1013.8
20260906004615 71 90 0.0 0.0 0.00 0.00 0.00 89 1013.6
20260906003130 73 90 0.0 0.0 0.00 0.00 0.00 86 1013.4
20260906001549 75 90 0.0 3.0 0.00 0.00 0.00 83 1013.2
20260906000026 76 90 1.0 4.0 0.00 0.00 0.00 80 1013.0
20260905234538 76 90 0.0 3.0 0.00 0.00 0.00 78 1013.2
20260905233003 77 90 0.0 7.0 0.00 0.00 0.00 77 1013.1
20260905231559 77 86 2.0 10.0 0.00 0.00 0.00 75 1013.0
20260905230031 78 91 4.0 10.0 0.00 0.00 0.00 74 1013.0
20260905224604 78 69 2.0 9.0 0.00 0.00 0.00 74 1013.3
20260905223014 78 61 3.0 10.0 0.00 0.00 0.00 73 1013.3
20260905221524 79 71 4.0 12.0 0.00 0.00 0.00 72 1013.3
20260905220002 78 69 4.0 9.0 0.00 0.00 0.00 74 1013.5
20260905214536 79 67 3.0 8.0 0.00 0.00 0.00 75 1013.6
20260905213055 79 57 3.0 9.0 0.00 0.00 0.00 74 1014.0
20260905211540 79 56 1.0 6.0 0.00 0.00 0.00 76 1014.2
20260905210011 77 56 1.0 5.0 0.00 0.00 0.00 78 1014.4
20260905204550 78 55 2.0 6.0 0.00 0.00 0.00 76 1014.4
20260905203026 80 52 1.0 6.0 0.00 0.00 0.00 77 1014.6
20260905201609 79 55 2.0 6.0 0.00 0.00 0.00 75 1014.6
20260905200038 79 55 4.0 6.0 0.00 0.00 0.00 73 1014.8
20260905194521 79 54 0.0 4.0 0.00 0.00 0.00 75 1014.8
20260905193011 79 53 1.0 5.0 0.00 0.00 0.00 78 1014.6
20260905191621 78 52 0.0 7.0 0.00 0.00 0.00 77 1014.6
20260905190017 77 51 2.0 5.0 0.00 0.00 0.00 77 1014.9
20260905184544 77 51 0.0 2.0 0.00 0.00 0.00 80 1014.9
20260905181507 76 51 0.0 4.0 0.00 0.00 0.00 79 1014.9
20260905180040 76 51 0.0 3.0 0.00 0.00 0.00 80 1015.3